{"data":{"norad_id":42803,"intl_designator":"2017-039A","name":"IRIDIUM 113","alt_names":[],"object_type":"PAYLOAD","status":"ACTIVE","operator":null,"country":"US","launch_date":"2017-06-25","launch_site_code":"AFWTR","launch_vehicle":null,"mission":null,"orbit_class":"UNKNOWN","rcs_meters":null,"size_class":null,"mass_kg":null,"dimensions":null,"purposes":["comms"],"wikipedia_slug":null,"has_3d_model":false,"image_url":null,"decayed_at":null,"tle_current":{"epoch":"2026-09-20T01:20:19.162176Z","epoch_age_seconds":53952,"freshness":"FRESH","line1":"1 42803U 17039A   26263.05577734  .00000024  00000+0  16371-5 0  9992","line2":"2 42803  86.3918 282.5216 0002339  92.3845 267.7618 14.34217603484787","mean_motion":14.34217603,"eccentricity":0.0002339,"inclination_deg":86.3918,"raan_deg":282.5216,"arg_perigee_deg":92.3845,"mean_anomaly_deg":267.7618,"bstar":1.6371e-6,"rev_number":48478,"period_min":100.40317431524,"perigee_km":775.99390060306,"apogee_km":779.3413860152,"semimajor_km":7155.8046433091,"source":"CELESTRAK","updated_at":"2026-09-20T09:00:36.321740Z"}}}